Regional Weather Roundup
Issued by NWS

Home | Current Version | Previous Version | Text Only | Print | Product List | Glossary Off
Versions: 1 2 3 4 5 6 7 8 9 10 11 12 13 14 15 16 17 18 19 20 21 22 23 24 25 26 27 28 29 30 31 32 33 34 35 36 37 38 39 40 41 42 43 44 45 46 47 48 49 50

000
ASUS43 KIND 291459
RWRIN

WEATHER ROUNDUP FOR INDIANA
NATIONAL WEATHER SERVICE INDIANAPOLIS IN
1100 AM EDT MON AUG 29 2016

NOTE: "FAIR" INDICATES FEW OR NO CLOUDS BELOW 12,000 FEET WITH NO
SIGNIFICANT WEATHER AND/OR OBSTRUCTIONS TO VISIBILITY.

* - STATION DOES NOT REPORT WEATHER SUCH AS PRECIPITATION OR FOG.

+ - STATION NOT QUALITY CONTROLLED BY THE NATIONAL WEATHER SERVICE.
    USE DATA WITH CAUTION...ESPECIALLY DEWPOINT AND RELATIVE
    HUMIDITY OBSERVATIONS.

INZ001>003-010>013-019-020-291600-
NORTHWEST INDIANA

CITY           SKY/WX    TMP DP  RH WIND       PRES   REMARKS
GARY /AIRPORT/ MOSUNNY   81  72  74 NE7       30.25S
KNOX *+        PTSUNNY   77  50  38 E7        30.25S
MONTICELLO +   SUNNY     78  68  69 E6        30.25R

$$

LMZ046-743>745-291600-
SOUTHERN LAKE MICHIGAN

STATION/POSITION TIME  TEMP    WIND        PRES    WAVE
                       AIR SEA DIR/SP/G            HT
                 (UTC) (F)     (DEG/KT/KT) (MB)    (FT)
BURNS HARBOR     1400   74      80/  5/  7 1024.4S
MICHIGAN CITY    1400   75     100/  9/ 11   N/A
5NW MICH CITY    1400   74 76   90/  6/  8   N/A     1

$$

INZ004-005-014>016-021>024-291600-
NORTH CENTRAL INDIANA

CITY           SKY/WX    TMP DP  RH WIND       PRES   REMARKS
ELKHART        SUNNY    N/A N/A N/A CALM      30.27R
GOSHEN         SUNNY     78  70  76 SE8       30.27S
SOUTH BEND     SUNNY     79  71  76 SE12      30.27S

$$

INZ006>009-017-018-025>027-291600-
NORTHEAST INDIANA

CITY           SKY/WX    TMP DP  RH WIND       PRES   REMARKS
ANGOLA *+      MOSUNNY   77  72  83 SE9       30.27S
FORT WAYNE     FOG       74  70  87 NE8       30.27S VSB 1

$$

INZ028-029-035-036-043>045-051>053-291600-
WEST CENTRAL INDIANA

CITY           SKY/WX    TMP DP  RH WIND       PRES   REMARKS
CRAWFORDSVL +  PTSUNNY   78  73  85 SE6       30.26R
LAFAYETTE      MOSUNNY   76  72  87 CALM      30.25R
TERRE HAUTE    SUNNY     81  70  69 SE8       30.24S

$$

INZ030>032-037>040-046>048-054>057-064-065-291600-
CENTRAL INDIANA

CITY           SKY/WX    TMP DP  RH WIND       PRES   REMARKS
ANDERSON       SUNNY     77  72  83 E6        30.25S
COLUMBUS       SUNNY     79  72  78 CALM      30.24S
INDIANAPOLIS   MOSUNNY   80  69  69 VRB3      30.25R
-EAGLE CREEK   MOSUNNY   81  69  67 VRB3      30.24S
KOKOMO *+      SUNNY     77  72  83 E8        30.25S
MT COMFORT *+  SUNNY     79  70  73 E3        30.26R
SHELBYVILLE    SUNNY     82  68  62 VRB5      30.24S

$$

INZ033-034-041-042-049-050-058-059-291600-
EAST CENTRAL INDIANA

CITY           SKY/WX    TMP DP  RH WIND       PRES   REMARKS
MUNCIE         SUNNY     80  71  74 E8        30.26S

$$

INZ060-061-067>069-081>083-085>088-291600-
SOUTHWEST INDIANA

CITY           SKY/WX    TMP DP  RH WIND       PRES   REMARKS
EVANSVILLE     SUNNY     82  70  66 E6        30.21S
HUNTINGBURG *+ SUNNY     81  70  69 E5        30.22S

$$

INZ062-063-066-070>080-084-089>092-291600-
SOUTH CENTRAL AND SOUTHEAST INDIANA

CITY           SKY/WX    TMP DP  RH WIND       PRES   REMARKS
BLOOMINGTON    SUNNY     82  68  62 SE3       30.24S
MADISON *+     SUNNY     79  68  69 NE8       30.25S

$$





USA.gov is the U.S. government's official web portal to all federal, state and local government web resources and services.